Theta_e
315 314 314 315 314 314 313 313 311 310 308 306 305 304 303 303 302 300 299 297 296 295 295 295 294 294 293 293 293 293 292 292 292 292 291 291 291 291 290 290 290 290 290 290 290 289 289 290 289 289 289 289 289 290 290 290 291 291 292 293 294 294 295 295 295 295 294 292 293 293 292 293 293 293 293 293 293 293 293 293 293 293 293 293 294
312 312 312 312 312 312 311 309 308 306 305 304 303 302 302 300 298 297 296 295 295 295 294 294 293 293 293 293 292 292 292 292 292 291 291 291 290 290 290 290 290 290 289 289 289 289 289 289 289 289 289 289 289 289 289 289 290 290 291 292 292 293 293 294 294 294 293 293 292 292 292 292 292 292 292 292 292 292 292 292 292 293 293 293 293
310 310 310 310 310 309 307 305 304 304 303 303 302 300 298 297 296 295 295 294 294 294 293 293 293 292 292 292 292 292 291 291 291 291 290 290 290 290 289 289 289 289 289 289 289 289 289 288 288 288 288 288 288 288 289 289 289 289 290 290 291 291 292 293 293 293 293 292 292 292 292 292 292 292 292 292 292 292 292 292 292 292 292 292 292
307 307 307 307 306 305 303 303 303 302 301 300 298 297 296 295 294 294 294 293 293 293 292 292 292 292 292 292 291 291 291 290 290 290 290 289 289 289 289 289 288 288 288 288 288 288 288 288 288 288 288 288 288 288 288 288 288 288 289 289 290 290 291 292 292 292 292 292 292 291 291 291 291 291 291 291 291 291 291 291 291 291 291 292 292
305 305 305 304 303 302 302 302 301 300 298 297 295 295 294 294 293 293 293 292 292 292 292 292 292 291 291 291 291 291 290 290 289 289 289 289 288 288 288 288 288 288 288 288 287 287 287 287 287 287 287 287 287 287 287 287 287 288 288 289 289 290 290 291 291 291 292 292 292 291 291 291 291 291 291 291 291 291 291 291 291 291 291 292 292
303 303 303 302 301 301 300 299 298 297 295 295 294 294 293 293 293 292 292 292 292 292 291 291 291 291 291 291 290 290 289 289 289 288 288 288 288 288 287 287 287 287 287 287 287 287 287 287 287 287 287 287 287 287 287 287 287 287 288 288 288 289 289 290 290 290 291 291 291 291 291 291 291 291 291 291 291 291 291 291 291 291 291 291 292
302 302 302 301 300 299 298 297 296 295 294 294 293 293 293 292 292 292 292 292 291 291 291 291 291 291 290 290 290 289 289 288 288 288 287 287 287 287 287 287 287 287 287 287 287 287 287 287 287 286 286 286 286 286 286 286 287 287 287 288 288 288 289 289 289 290 290 291 291 291 291 290 291 291 290 290 290 291 291 291 291 290 290 291 291
301 301 301 300 298 297 296 295 294 294 294 293 293 293 292 292 292 292 291 291 291 291 291 290 290 290 290 290 289 289 288 288 287 287 287 287 287 287 287 287 287 287 287 287 287 287 286 286 286 286 286 286 286 286 286 286 286 286 287 287 287 288 288 288 289 289 289 290 290 291 291 291 291 291 290 290 291 291 291 291 291 290 290 290 291
301 300 299 297 296 295 294 293 293 293 293 292 292 292 292 291 291 291 291 291 291 290 290 290 290 290 289 289 288 288 287 287 287 287 287 287 287 287 287 286 286 286 286 287 286 286 286 286 286 285 285 285 285 285 285 285 286 286 286 286 287 287 287 288 288 289 289 290 290 290 290 291 291 291 291 291 291 290 290 290 290 290 290 290 290
299 298 297 295 294 293 293 293 293 292 292 292 292 291 291 291 291 290 290 290 290 290 290 289 290 289 289 289 288 288 287 287 287 286 286 286 286 286 286 286 286 286 286 286 286 286 285 285 285 285 285 285 285 285 285 285 285 285 285 286 286 287 287 287 288 288 289 289 290 290 290 290 290 290 290 290 290 290 290 290 290 290 290 290 290
298 296 295 294 293 293 292 292 292 292 291 291 291 291 291 290 290 290 290 289 289 289 289 289 289 289 289 288 288 287 287 287 286 286 286 286 286 286 286 286 285 285 285 285 285 285 285 285 284 284 284 284 284 284 284 284 284 285 285 285 286 286 286 287 287 287 288 288 289 289 289 290 290 289 289 290 290 290 290 290 289 289 289 290 290
296 295 294 293 292 292 292 292 291 291 291 291 290 290 290 290 289 289 289 289 289 289 289 289 289 288 288 288 287 287 287 286 286 286 286 286 285 285 285 285 285 285 284 284 284 284 284 284 284 284 284 284 284 284 284 284 284 284 285 285 285 286 286 286 286 287 287 287 288 288 288 288 288 288 288 289 289 289 288 288 288 289 289 289 290
294 294 293 292 292 291 291 291 291 290 290 290 290 290 289 289 289 289 289 289 289 289 289 288 288 288 288 287 287 287 286 286 286 286 285 285 285 285 285 285 285 284 284 284 283 283 283 283 283 283 283 283 283 284 284 284 284 285 285 285 286 286 286 286 286 286 287 287 287 287 287 287 287 288 288 288 288 287 287 288 288 288 289 289 289
294 293 292 291 291 291 291 290 290 290 290 290 290 289 289 289 289 289 289 289 289 288 288 288 287 287 287 287 287 286 286 286 285 285 285 285 285 285 285 285 284 284 283 283 283 282 282 282 283 283 283 283 283 283 284 284 285 285 285 285 285 285 285 285 285 286 286 286 286 286 286 286 287 287 287 287 287 286 287 287 288 288 288 288 288
293 292 291 291 291 290 290 290 290 290 289 289 289 289 289 289 289 288 288 288 288 288 287 287 287 287 287 286 286 286 285 285 285 284 284 284 284 284 284 284 284 283 283 282 282 282 282 282 282 282 282 283 283 283 284 284 284 284 284 284 284 284 284 284 284 285 285 285 285 285 286 286 286 287 287 286 286 287 287 287 287 287 288 287 288
292 292 291 290 290 290 290 290 290 289 289 289 289 288 288 288 288 288 288 288 288 287 287 287 287 286 286 286 286 285 285 284 284 284 284 284 284 284 284 284 283 283 282 282 281 281 281 281 282 282 282 282 282 282 283 283 283 283 283 283 284 284 284 284 284 284 285 285 285 285 286 286 286 286 286 286 286 287 287 287 287 287 287 287 287
292 291 291 290 290 289 289 289 289 289 289 288 288 288 288 288 288 288 287 287 287 287 287 286 286 286 286 285 285 285 284 284 283 283 283 283 283 283 283 283 283 282 282 281 281 281 281 281 281 281 281 281 281 282 282 283 283 283 284 284 284 284 284 284 284 284 284 284 285 285 285 285 285 285 286 286 286 287 287 287 287 287 287 286 287
291 290 290 290 289 289 289 289 289 289 288 288 288 288 288 288 287 287 287 287 287 287 286 286 286 286 285 285 284 284 283 283 283 283 283 282 282 282 282 281 281 281 281 281 281 280 280 280 280 280 280 280 281 282 282 283 283 283 284 284 284 284 284 284 283 283 284 284 284 285 285 285 285 286 286 286 286 287 287 287 287 287 287 286 287
290 290 290 289 288 289 289 289 288 288 288 288 288 288 287 287 287 287 287 287 286 286 286 285 285 285 284 283 283 282 282 282 282 282 282 281 281 281 280 280 280 280 280 281 280 280 279 279 279 279 280 280 281 282 282 283 283 283 283 284 284 284 283 283 284 284 284 284 285 285 285 285 286 286 286 286 287 287 287 286 286 287 287 287 287
290 289 289 288 288 289 289 288 288 288 288 288 287 287 287 287 287 287 286 286 286 286 285 285 285 284 283 282 281 281 282 282 282 281 281 280 280 279 279 279 279 279 279 279 279 279 278 278 278 279 279 280 281 282 282 282 283 283 283 283 283 283 283 284 284 284 284 285 285 285 285 285 286 286 286 286 286 286 286 286 286 287 286 286 286
289 289 289 288 288 288 288 287 287 287 287 287 287 287 286 286 286 286 286 286 285 285 285 285 284 284 282 281 281 281 281 281 281 281 280 279 279 279 279 278 278 279 278 278 278 278 278 278 278 278 279 280 281 281 281 282 282 282 282 282 282 283 283 284 284 284 284 285 285 285 285 286 286 286 286 286 286 286 286 286 286 285 284 284 284
289 288 288 288 288 288 287 287 287 287 287 287 286 286 286 286 286 286 285 285 285 285 284 284 283 283 282 281 281 281 280 280 280 280 279 278 278 278 278 278 278 278 277 277 277 277 277 277 277 278 279 280 280 280 280 281 281 281 281 282 282 283 283 283 284 284 284 285 285 285 285 285 286 286 286 286 286 285 285 284 283 283 282 281 281
288 288 287 288 288 287 287 287 286 286 286 286 286 286 286 286 285 285 285 285 284 284 283 283 282 282 282 282 281 281 280 279 278 278 278 277 277 277 277 277 278 277 277 277 277 277 277 277 277 278 279 279 279 280 280 280 280 280 281 281 282 282 282 283 283 283 284 284 285 285 285 285 285 285 285 285 284 284 283 282 281 281 280 280 279
288 287 287 287 287 286 286 286 286 286 286 285 285 286 285 285 285 284 284 284 284 283 283 282 282 282 282 282 281 281 279 278 277 277 277 276 276 276 277 277 277 277 277 277 276 276 277 277 278 278 279 279 279 279 279 279 280 280 281 281 281 281 282 282 282 283 284 284 285 285 285 285 285 285 284 283 282 282 281 280 280 279 278 278 278
287 287 287 287 286 286 285 285 285 285 285 285 285 285 285 284 284 284 284 283 283 282 282 282 282 281 281 280 280 280 279 278 277 276 276 275 275 275 276 276 276 276 276 276 276 276 277 278 278 278 278 277 278 278 278 279 279 280 280 280 280 281 281 281 282 283 284 284 284 285 285 285 284 284 282 282 281 280 279 279 278 278 277 278 278
286 286 287 286 285 285 285 285 285 285 285 285 285 284 284 284 284 283 282 282 281 281 281 281 280 280 279 278 278 278 278 277 276 275 275 274 275 275 275 275 275 276 276 276 276 277 277 277 277 277 276 276 277 277 278 278 279 278 279 279 280 280 280 280 282 283 283 284 284 283 283 283 282 282 281 280 279 278 277 277 276 276 277 277 278
286 286 286 285 284 284 284 285 284 284 284 284 284 284 283 283 283 282 281 281 280 280 280 280 279 279 277 276 276 277 277 276 275 274 274 274 275 275 275 275 275 275 275 276 276 276 276 276 275 275 275 275 276 277 278 278 277 277 278 279 279 279 279 280 281 282 282 282 282 282 281 281 280 280 279 278 277 276 276 276 275 275 276 276 277
286 286 285 284 284 284 284 284 284 284 284 283 283 283 282 282 282 281 280 280 280 280 279 279 278 277 276 275 275 276 276 275 275 274 274 274 274 275 275 275 275 275 275 276 276 275 274 274 274 274 274 275 276 277 277 276 276 277 277 278 278 278 279 280 280 280 280 280 280 280 279 279 279 278 277 276 276 275 275 275 275 275 275 276 275
285 285 284 284 283 283 283 283 283 283 283 282 282 281 281 281 281 280 280 279 279 279 278 278 277 276 275 275 274 274 274 274 274 274 274 274 275 275 275 275 275 275 275 275 275 274 273 273 273 274 275 276 276 276 276 276 276 276 276 277 277 278 279 279 279 278 278 278 278 278 278 278 278 277 276 275 275 275 275 275 275 274 275 274 273
284 284 283 283 283 282 282 282 282 282 282 281 281 280 280 279 279 279 279 278 278 278 277 276 276 275 275 275 274 273 273 273 273 273 274 274 274 274 275 275 275 275 275 274 273 272 272 273 273 274 275 275 275 275 275 274 274 274 275 276 277 277 278 277 277 277 277 277 277 277 277 277 276 276 275 275 274 274 274 274 274 274 274 273 272
284 283 283 283 282 282 282 281 281 281 280 281 281 280 279 278 277 278 278 277 277 276 275 275 275 274 274 274 274 273 272 272 272 272 273 274 274 274 274 274 273 273 274 273 272 271 272 272 273 273 273 273 273 273 272 272 272 273 274 275 276 276 276 276 275 275 276 276 277 277 277 276 275 275 274 274 274 274 274 274 274 273 273 272 271
284 284 283 283 282 281 281 281 280 280 280 279 279 279 279 278 277 277 277 276 276 275 274 275 275 274 274 273 272 272 272 272 271 271 272 273 273 273 273 272 272 272 272 271 270 270 271 271 271 271 271 271 270 270 270 270 271 272 273 274 274 274 274 274 274 274 275 276 276 276 276 275 275 274 274 274 274 273 273 273 273 272 272 271 271
285 285 284 282 281 280 280 280 280 280 280 279 279 278 279 278 277 276 275 275 275 274 274 274 274 273 272 272 272 272 271 271 271 271 271 271 271 271 272 272 271 271 270 269 268 269 269 269 269 269 269 269 268 268 268 269 269 270 272 273 272 272 272 273 273 274 275 275 276 276 275 275 274 274 273 273 273 273 272 272 271 271 271 271 270
285 285 284 283 281 281 280 280 280 279 279 279 279 278 278 278 278 276 275 274 274 274 273 273 273 272 271 272 272 272 272 271 271 270 270 270 270 270 272 273 272 271 269 267 267 267 267 267 267 267 267 267 267 267 267 267 268 269 270 270 270 271 271 272 272 273 274 275 275 275 275 274 274 273 273 273 273 272 272 271 271 271 270 270 270
283 283 283 282 282 281 281 280 280 279 279 278 278 278 278 277 277 276 275 275 275 273 272 272 271 271 271 272 272 272 271 271 271 271 271 270 270 271 272 272 270 268 267 266 265 265 265 265 265 265 265 265 266 266 266 266 267 268 269 269 269 269 270 271 272 273 274 274 275 275 274 274 273 273 273 273 272 272 271 271 270 270 270 269 270
281 282 282 281 281 281 280 279 279 279 278 278 278 277 277 276 275 274 275 275 275 273 272 271 271 270 270 271 272 272 271 271 271 271 271 270 270 270 270 267 265 265 265 264 264 264 264 264 264 264 264 264 264 265 265 265 266 267 267 267 267 268 269 270 272 272 273 274 274 274 274 274 273 273 273 272 272 271 270 270 270 269 269 270 270
280 281 281 280 280 279 279 278 278 278 277 277 276 276 275 274 273 273 274 273 272 271 270 270 270 270 270 271 272 272 271 271 271 271 271 270 270 269 268 265 264 264 264 264 263 263 263 263 263 263 263 263 263 264 264 265 265 265 265 265 265 266 267 269 271 271 272 273 273 274 274 273 273 273 273 272 271 271 270 270 270 269 269 270 270
279 279 279 279 279 278 278 277 277 276 276 275 275 275 274 272 272 272 272 271 270 269 268 269 269 270 270 270 271 271 270 271 271 271 271 270 269 268 267 265 264 264 263 263 263 263 263 263 263 263 263 263 263 263 263 264 264 264 264 264 264 264 266 267 269 270 271 272 273 273 273 273 273 273 272 272 271 271 270 270 269 269 269 270 269
277 277 277 278 277 277 277 277 276 275 275 274 274 273 272 272 271 271 270 270 269 268 268 268 268 268 269 269 269 269 270 270 270 270 270 269 268 267 266 265 264 264 264 264 263 263 263 263 263 264 264 264 263 263 263 263 263 263 263 263 263 263 264 265 267 269 270 271 271 272 273 273 273 273 272 272 271 271 270 270 269 269 269 269 269
276 276 276 276 276 276 276 276 275 275 274 274 273 272 272 272 272 271 270 270 269 268 268 268 268 268 268 269 268 268 269 269 269 268 268 268 267 266 265 265 265 264 264 263 263 263 263 264 264 264 264 264 264 264 264 263 263 263 263 263 263 263 263 264 265 267 268 269 270 271 272 273 273 272 272 272 271 271 270 269 269 269 269 269 269
275 275 275 275 275 275 275 275 274 275 274 274 273 273 272 272 272 272 271 270 269 269 268 268 268 268 269 268 267 267 268 268 268 268 267 267 266 266 266 265 265 264 264 263 263 263 263 264 264 264 265 265 264 264 264 264 263 263 263 263 263 263 263 264 264 265 266 267 269 270 271 272 272 272 272 272 271 271 270 270 269 269 269 269 270
274 274 274 274 274 274 274 274 274 274 274 273 273 272 272 272 272 272 271 270 270 269 269 268 268 268 268 268 267 267 267 267 267 267 267 267 266 266 266 266 265 265 264 264 263 263 263 264 264 265 265 265 265 264 264 264 264 263 263 263 263 263 264 264 264 265 266 267 268 269 270 271 272 272 272 272 271 271 270 269 269 269 269 269 269
273 273 273 273 273 273 273 273 273 273 272 272 271 271 271 271 271 271 270 270 269 269 269 269 269 268 268 268 268 267 267 267 267 267 266 266 266 266 266 266 266 265 265 265 264 264 264 264 265 265 265 265 265 265 265 265 264 263 263 263 263 264 264 265 265 265 266 266 267 268 269 271 271 272 272 271 271 270 270 269 269 269 269 268 268
272 273 272 272 272 272 272 272 272 272 272 271 270 270 270 270 270 270 270 269 269 269 269 269 268 268 268 268 268 268 267 267 267 267 266 266 266 266 266 266 266 266 266 265 265 264 265 265 265 265 265 265 265 265 265 265 265 264 263 263 263 264 264 265 266 266 266 266 267 268 269 270 270 271 271 271 271 270 269 269 268 268 268 268 268
271 271 271 271 271 271 271 271 271 271 270 270 269 269 269 269 270 270 269 269 268 268 268 268 268 268 268 268 268 268 267 267 267 266 266 266 266 266 266 266 266 266 266 266 265 265 265 265 265 265 265 266 266 266 266 266 266 265 264 263 263 264 264 265 266 267 267 267 267 267 268 269 269 270 270 270 270 270 269 268 268 267 267 267 267
270 270 270 270 270 270 270 270 270 269 269 269 269 269 269 269 269 269 268 268 268 268 267 266 267 267 268 268 267 267 267 267 267 266 266 266 266 266 266 266 266 266 265 265 265 266 266 265 265 265 265 266 266 266 266 266 266 266 265 265 264 264 265 266 267 268 268 267 267 267 268 268 269 269 270 269 269 269 269 268 268 267 267 267 267
269 269 269 269 269 269 268 268 268 268 268 268 268 269 269 269 268 268 267 267 267 267 266 266 266 267 267 267 267 267 267 266 266 266 266 266 266 266 266 266 266 266 266 266 265 265 265 265 265 265 266 266 266 266 266 266 266 266 266 266 265 265 265 266 267 268 269 268 268 268 268 268 268 268 269 269 269 269 268 268 267 267 267 267 267
268 268 268 268 268 268 268 267 267 267 268 268 268 268 268 268 267 267 267 267 267 267 266 266 266 266 267 267 267 267 266 266 266 266 266 266 266 266 266 266 266 266 266 266 266 265 265 265 265 265 265 266 266 266 266 266 266 266 266 266 266 266 266 266 267 268 269 269 269 269 268 268 268 268 268 268 268 268 268 268 267 267 267 267 267
267 267 267 267 267 268 268 268 268 268 268 268 268 268 267 267 267 267 267 267 267 267 266 266 266 266 267 267 266 266 266 266 266 266 266 266 266 266 266 266 266 266 266 266 266 266 265 265 265 265 265 265 265 266 266 266 266 266 266 266 265 265 266 266 267 267 268 269 269 269 269 268 268 268 268 268 268 268 268 267 267 267 267 267 266
267 267 268 268 268 268 268 268 268 269 268 268 268 268 267 267 267 267 267 267 267 267 266 266 266 266 266 266 266 266 266 266 266 266 266 266 266 266 266 266 266 266 266 266 266 266 266 265 265 265 265 265 265 265 265 266 266 266 266 265 265 265 266 266 267 267 267 268 268 269 269 268 268 268 268 268 268 268 268 268 267 267 267 267 266
266 267 268 268 268 268 268 268 268 268 268 268 268 268 267 267 267 267 267 267 267 267 266 266 266 266 266 266 266 266 266 266 266 266 266 266 266 266 266 266 266 266 267 267 267 266 266 266 265 265 265 265 265 265 265 265 265 265 265 265 265 265 265 266 266 266 267 267 267 268 268 268 268 268 268 268 269 268 268 268 268 267 267 267 266
Wind_Speed
22 23 24 24 24 24 23 22 21 20 20 21 22 23 22 21 21 20 19 17 15 14 12 11 10 9 8 8 7 7 7 7 7 7 7 7 7 7 8 9 11 12 13 13 14 15 16 18 19 18 18 20 22 22 22 21 20 21 20 20 24 22 21 23 17 20 42 50 43 45 45 40 43 45 39 40 42 40 39 39 39 39 38 37 38
24 25 25 25 25 24 23 23 22 23 24 24 24 24 23 21 20 19 18 16 14 12 11 10 10 9 8 8 7 7 7 6 6 6 6 7 7 8 10 11 13 14 15 16 17 18 19 20 21 21 21 22 24 24 24 24 23 23 24 22 25 26 22 23 24 20 31 48 50 48 48 41 41 46 41 38 41 42 43 42 39 38 39 37 38
25 25 26 26 25 25 25 25 26 26 27 26 25 24 23 21 19 17 16 15 13 11 11 10 9 8 8 7 7 7 7 7 7 7 8 8 9 10 11 13 14 16 17 18 19 19 20 22 22 23 23 24 26 26 26 26 25 25 27 26 26 30 28 25 27 26 28 41 51 52 52 48 46 47 42 38 39 40 42 44 41 40 41 39 39
26 27 28 28 27 28 28 28 29 28 28 27 25 24 22 20 18 16 15 13 12 11 11 10 9 8 7 7 7 7 7 7 8 8 9 10 11 12 13 14 15 16 17 18 19 20 21 22 24 24 25 26 28 28 27 27 28 27 28 30 28 30 32 29 28 31 31 36 47 53 53 52 52 50 44 40 39 38 38 41 42 43 44 42 40
28 29 30 31 30 31 31 30 30 29 28 27 25 23 21 19 17 15 14 13 12 11 10 9 8 8 8 8 8 8 8 9 9 9 9 10 11 12 13 14 15 16 17 19 20 21 22 23 25 25 26 28 29 30 30 29 29 30 29 31 32 31 32 32 30 31 33 36 43 51 53 51 50 49 44 38 39 40 40 42 43 43 42 42 39
30 31 32 33 33 32 32 31 30 29 28 26 24 22 20 18 16 15 14 13 12 11 10 9 9 8 8 8 8 9 9 10 10 10 10 10 11 12 13 15 16 17 18 20 21 22 23 25 26 27 27 28 30 30 31 31 30 31 31 31 32 32 32 33 31 30 33 36 40 45 49 49 47 48 47 40 37 40 40 41 43 41 39 39 39
32 33 34 34 34 33 32 31 29 28 26 24 22 21 19 18 16 15 14 13 12 11 10 10 9 9 9 8 9 9 9 10 10 10 11 11 13 14 15 17 18 19 20 22 23 24 25 26 27 28 28 28 30 30 31 32 32 32 32 31 32 32 32 32 30 29 31 34 37 40 44 47 47 47 48 45 40 38 35 33 35 39 42 42 41
34 34 34 34 33 32 31 30 28 26 25 23 22 20 19 18 16 15 14 13 12 11 10 10 9 9 8 8 9 9 10 10 10 11 12 13 14 15 17 18 20 21 22 23 25 25 27 28 28 29 29 29 29 30 30 30 32 34 34 31 30 31 32 32 31 30 30 32 36 38 40 43 44 42 44 43 35 30 32 31 31 35 40 41 44
35 35 35 34 33 32 31 29 27 25 24 23 21 20 19 18 16 15 14 13 12 11 10 9 9 8 8 8 8 9 9 10 11 12 13 14 15 17 18 20 21 23 25 26 27 28 29 30 30 30 30 31 30 30 29 28 28 32 35 34 31 31 32 32 32 30 30 31 33 35 33 32 34 34 35 35 31 31 37 37 32 33 36 38 42
36 36 35 34 33 31 30 28 27 25 24 22 21 20 19 17 16 15 14 13 12 11 10 9 8 7 7 7 8 9 9 10 11 12 13 15 17 18 20 21 23 24 26 28 29 30 31 31 31 31 31 31 31 30 30 30 29 30 32 33 33 32 32 33 32 30 29 29 29 30 27 24 29 33 32 35 39 39 38 34 31 33 34 31 33
36 36 35 34 33 31 30 28 26 25 23 22 21 20 18 17 16 15 14 13 11 10 9 8 7 6 6 7 8 8 9 10 11 13 15 17 18 20 21 23 24 25 26 28 29 31 33 33 32 31 31 31 32 32 31 31 30 30 31 32 31 31 31 32 33 32 31 30 30 30 27 26 32 37 37 38 40 37 34 34 34 33 30 22 19
36 35 35 34 32 31 29 28 26 25 23 22 20 19 18 17 16 14 13 12 10 9 8 6 6 6 6 7 7 8 9 11 13 15 17 19 20 21 23 24 25 26 27 28 29 31 33 34 34 31 29 30 31 33 33 32 32 32 33 34 33 31 30 30 32 33 33 33 33 32 32 34 37 39 40 38 36 37 39 40 37 33 30 25 19
36 35 34 33 32 30 29 28 26 25 23 21 20 19 18 17 15 14 12 11 10 9 7 6 5 5 5 6 7 9 11 13 15 17 19 20 21 22 23 24 25 26 27 28 29 30 31 33 35 33 30 28 30 32 34 35 36 35 35 35 34 33 32 31 31 32 34 35 35 35 38 41 40 41 41 37 37 41 41 38 37 35 33 31 29
36 35 34 33 31 30 29 27 26 24 22 21 19 19 18 16 14 13 11 10 9 8 7 5 4 5 5 6 8 10 13 14 16 18 19 21 22 22 24 25 26 27 28 28 28 29 29 30 32 34 34 31 29 30 32 35 37 38 37 37 36 36 35 34 34 34 34 35 36 39 42 42 41 43 43 40 41 42 40 38 38 38 38 39 41
35 35 34 33 31 30 29 27 26 24 22 21 19 18 17 15 13 12 10 9 8 7 6 5 4 5 6 7 9 11 14 16 17 18 19 21 22 24 25 27 28 29 28 28 28 28 28 29 30 32 34 33 30 28 29 33 36 37 39 40 40 41 40 39 39 39 39 38 39 41 42 42 44 45 45 44 45 44 43 43 42 40 41 42 43
35 35 34 33 31 30 28 27 25 24 23 21 20 18 16 14 12 11 10 9 7 6 5 4 4 5 7 8 10 12 14 16 17 18 20 21 23 25 26 28 30 31 30 29 28 27 27 28 29 32 34 34 32 29 29 31 34 36 39 41 43 45 45 43 42 42 42 42 42 42 43 45 47 47 47 48 47 46 44 42 40 38 35 31 31
35 35 34 33 31 29 28 26 25 24 23 21 19 17 15 13 12 10 9 8 6 5 4 4 4 6 7 9 11 13 14 16 17 19 20 22 24 26 28 29 31 32 32 31 29 28 27 26 27 31 34 35 34 32 31 32 34 36 38 40 43 43 44 45 45 45 45 45 45 44 44 46 48 47 47 47 46 45 41 35 35 35 29 20 18
35 35 34 33 31 29 27 26 25 24 22 20 18 16 14 13 11 9 8 6 5 5 4 4 4 6 8 9 11 13 14 16 17 19 20 22 24 25 27 30 31 32 34 35 33 30 28 27 27 28 31 34 34 33 32 33 35 37 37 39 40 40 41 44 45 47 49 49 48 46 45 46 46 44 44 43 43 42 39 35 36 35 27 20 18
35 35 34 32 30 28 27 25 24 23 21 19 17 15 14 12 11 9 7 6 4 3 4 4 5 7 9 10 11 13 14 16 17 19 21 22 23 24 25 28 31 32 33 36 37 35 32 30 28 26 28 32 33 34 34 34 35 37 37 37 36 37 40 43 44 46 48 49 49 48 47 46 44 41 40 40 39 39 38 38 37 34 29 27 27
35 34 33 31 29 27 26 25 23 22 20 18 17 15 13 12 10 8 6 5 4 3 3 4 5 7 9 10 11 13 15 17 18 19 21 22 22 22 24 26 29 31 32 33 36 39 38 35 32 28 28 31 32 34 35 35 35 37 37 35 34 37 41 44 44 45 46 46 46 46 45 44 42 40 38 38 38 38 37 34 32 31 30 31 31
34 33 32 30 29 27 25 24 23 21 19 17 16 15 13 11 9 7 6 4 3 2 3 4 5 7 9 10 12 14 16 18 19 20 21 21 21 21 23 24 25 28 32 32 33 36 38 40 39 34 32 33 34 35 36 35 35 36 36 34 35 38 41 42 43 43 43 42 41 41 41 41 39 38 38 38 37 34 31 30 32 34 35 34 33
34 33 31 29 28 26 25 24 22 21 19 17 16 14 13 11 8 7 6 4 2 2 2 4 6 7 9 11 13 16 17 19 20 21 21 21 21 20 21 22 22 25 30 33 34 36 37 38 39 37 35 36 37 36 35 35 35 35 35 36 38 39 40 41 42 41 40 39 38 38 39 38 38 38 38 35 32 30 32 37 40 40 38 36 34
33 31 30 28 27 26 25 24 22 20 19 17 16 14 12 10 8 6 5 4 2 1 3 5 6 8 9 12 14 17 18 19 20 20 21 21 21 20 19 20 21 23 27 30 33 34 34 36 37 37 37 38 37 36 35 34 33 34 35 37 38 38 39 40 39 39 38 37 37 37 38 37 37 36 33 31 34 37 41 43 41 38 36 34 32
32 30 29 28 27 26 25 23 22 20 19 17 15 13 12 10 8 6 5 3 2 1 3 5 7 9 11 13 15 17 19 19 20 20 21 21 21 20 19 20 21 22 25 27 29 30 31 34 37 37 37 37 36 35 34 32 32 33 35 36 37 36 36 37 38 37 36 35 35 36 36 35 33 31 32 37 42 43 41 39 36 32 28 24 21
31 30 29 28 27 26 25 23 21 19 18 17 15 13 12 10 8 7 5 3 2 1 3 5 8 10 13 15 17 18 19 20 21 21 22 22 21 20 19 20 21 21 24 27 28 28 30 32 33 34 34 34 33 34 34 32 32 33 34 35 35 34 35 36 37 35 34 34 35 34 34 34 33 34 37 41 42 39 36 34 30 24 19 15 12
31 29 29 28 27 26 24 23 21 19 18 16 15 13 12 10 8 7 5 4 2 1 3 5 8 11 13 15 17 18 19 20 21 22 23 23 21 20 20 21 21 22 24 26 27 28 29 29 30 31 31 31 31 33 32 31 32 34 34 34 33 33 35 35 34 34 33 34 35 35 35 36 37 38 38 37 36 33 29 26 24 19 14 10 7
31 30 30 29 27 26 24 22 21 20 18 16 15 14 12 10 9 8 6 4 3 2 3 5 8 11 14 15 16 17 19 20 22 24 24 24 24 23 24 24 24 25 27 28 29 30 30 29 28 28 29 30 29 28 28 30 33 34 33 32 33 34 34 33 32 32 33 33 35 36 37 37 36 36 34 33 31 28 23 20 18 14 10 6 7
32 31 30 29 27 25 24 23 21 20 18 16 15 14 12 10 10 9 7 5 3 3 3 5 8 10 12 13 15 17 19 20 22 23 23 24 25 26 26 27 27 27 28 29 31 32 30 28 29 30 31 31 29 28 30 33 34 32 30 31 34 35 33 32 33 33 32 32 35 37 37 35 33 32 31 29 26 23 19 16 13 10 7 4 7
31 31 30 29 28 26 24 23 21 20 18 17 15 14 12 11 10 9 7 5 4 3 3 4 6 7 8 10 13 16 18 19 18 19 19 20 22 23 25 26 26 27 26 26 27 29 29 29 31 32 33 31 30 31 34 36 36 36 35 34 35 35 32 32 34 35 34 35 35 35 33 32 31 30 28 26 22 18 15 12 9 6 5 7 10
31 31 30 29 28 27 25 23 22 20 18 17 17 15 13 12 11 10 8 6 5 4 3 3 3 4 5 7 8 11 13 14 15 16 17 18 18 19 21 22 23 25 25 24 23 24 27 28 28 28 29 28 27 29 32 33 33 35 37 37 36 34 32 32 36 38 38 36 34 32 31 29 29 28 26 22 18 14 11 9 6 3 6 10 13
33 32 31 30 29 28 26 24 22 21 18 17 17 17 16 14 12 11 10 9 8 7 4 3 2 2 4 6 7 8 9 11 13 15 16 17 17 18 19 20 20 21 23 24 24 24 25 25 25 25 26 26 25 26 27 29 29 30 32 35 35 33 32 36 39 41 39 36 33 31 29 27 26 25 22 18 14 11 9 6 4 5 9 11 12
35 34 33 31 29 28 26 25 23 22 20 18 18 18 18 17 15 12 12 12 11 8 6 4 3 3 4 5 6 8 9 11 12 14 15 16 17 18 18 18 18 18 19 20 20 21 22 22 22 23 24 25 26 26 26 26 27 28 29 31 33 34 36 40 41 39 37 35 32 30 28 27 25 22 18 14 11 9 6 5 5 8 11 13 13
35 34 34 32 30 28 27 25 24 23 21 21 20 19 19 18 17 16 15 14 12 9 7 5 4 4 5 4 5 6 8 10 12 13 14 15 17 18 18 18 18 18 19 20 19 19 20 20 20 21 22 24 27 28 28 28 29 28 27 28 33 38 40 41 40 39 37 34 31 29 28 26 23 19 16 12 9 6 5 5 6 9 12 13 13
33 33 34 33 31 30 28 26 24 23 22 21 21 20 19 17 17 18 18 16 13 10 7 6 6 6 5 5 5 7 8 10 11 12 13 15 17 18 19 20 20 20 21 21 20 20 20 19 20 20 22 25 26 27 29 31 30 28 28 31 34 38 41 40 39 38 37 34 31 29 27 24 21 17 14 10 7 5 5 6 7 8 10 12 13
32 32 32 31 30 29 28 26 25 23 22 21 20 19 18 17 16 17 17 16 14 11 8 7 6 6 6 6 6 8 9 10 11 12 13 15 17 19 20 22 23 23 23 22 21 20 20 20 21 22 24 26 26 26 28 30 29 29 31 33 33 35 37 37 36 36 36 33 30 28 25 22 19 15 12 9 6 5 5 6 6 8 10 12 13
31 30 30 30 29 28 27 26 25 23 22 20 19 18 16 16 15 15 14 13 12 11 9 8 7 6 5 6 7 8 9 11 11 12 14 15 16 19 21 21 21 21 21 22 21 20 20 21 23 24 25 26 26 27 28 28 29 31 33 33 32 32 34 34 34 35 34 32 29 27 24 20 17 13 10 7 5 4 5 5 7 9 10 12 12
31 31 30 30 29 27 26 25 24 22 21 20 19 18 16 16 15 13 12 12 11 10 8 7 7 6 5 5 7 8 10 10 11 11 13 14 16 19 20 19 17 18 19 20 20 20 21 23 24 25 26 26 27 27 28 28 30 32 34 34 32 31 31 31 31 32 32 30 28 26 23 19 15 12 9 6 4 3 4 6 8 10 11 11 12
31 31 31 30 29 28 27 25 24 23 21 20 19 18 17 17 15 13 12 12 11 10 8 7 6 6 5 5 7 8 9 9 10 11 13 14 16 18 18 17 17 17 18 19 19 20 22 23 24 25 26 27 27 28 28 30 31 33 34 34 33 31 31 30 30 30 30 28 27 25 21 17 14 11 8 6 2 2 4 7 10 11 12 12 11
31 30 30 29 29 28 27 26 25 24 23 22 20 19 18 17 16 14 13 13 11 10 8 7 6 6 5 6 7 8 9 10 11 12 13 14 15 16 16 16 17 17 17 18 19 20 21 23 24 25 26 27 28 28 28 30 31 32 33 33 32 33 34 32 30 30 30 28 27 25 20 16 14 11 8 5 2 2 5 7 10 11 11 13 14
32 31 30 29 29 28 27 26 26 26 24 23 22 21 20 18 16 15 14 13 12 11 9 8 7 6 6 6 6 7 8 9 10 10 11 12 13 13 14 15 16 16 17 17 18 19 21 22 23 24 25 26 27 28 28 29 30 31 32 32 31 33 35 33 30 30 30 29 27 25 20 16 14 11 8 5 2 3 5 8 9 10 12 15 17
33 31 30 30 29 28 28 27 27 26 25 24 23 22 20 18 16 15 14 13 12 11 9 8 7 6 6 6 5 4 5 6 7 8 8 9 10 11 12 13 14 15 16 17 17 18 19 21 22 23 24 25 26 27 27 28 29 30 32 32 32 33 34 34 33 33 31 29 27 25 21 16 13 11 9 6 3 4 6 8 9 10 13 16 18
33 33 31 31 30 30 30 30 28 27 25 24 23 22 20 18 17 15 14 12 11 10 9 8 7 7 6 6 5 3 2 3 4 5 6 7 8 9 10 11 12 14 15 16 16 17 18 19 20 21 22 23 25 26 27 27 28 29 31 32 32 32 33 34 34 34 32 29 28 26 22 17 13 11 9 7 4 5 7 9 10 12 15 16 17
34 33 32 32 32 32 31 30 29 27 27 25 24 22 20 18 16 15 13 12 11 10 9 8 7 7 6 5 4 3 1 1 2 3 5 6 7 8 9 10 11 11 12 13 14 15 16 18 19 20 20 21 22 24 25 25 26 27 28 31 32 32 33 33 33 32 30 28 27 26 23 18 14 12 10 8 6 6 8 9 11 14 16 17 17
33 32 32 31 31 31 30 29 29 28 27 25 23 21 20 18 17 15 14 13 12 10 9 8 7 7 7 5 4 3 1 0 2 3 4 5 6 7 8 9 10 10 11 12 13 13 15 16 17 18 19 19 20 21 22 23 23 24 25 28 30 31 32 33 32 30 28 26 26 25 23 20 16 13 10 8 7 7 8 9 12 15 16 16 16
33 33 32 31 31 31 30 29 29 28 27 25 23 22 20 19 17 16 15 14 13 11 10 10 8 7 6 5 3 2 2 2 3 4 5 6 7 7 8 9 10 11 11 11 12 13 14 15 17 18 19 19 19 19 20 20 21 22 22 24 26 28 30 31 30 28 26 24 23 22 21 20 17 14 11 9 8 8 9 10 12 14 15 16 15
34 34 33 32 31 31 30 29 28 28 27 26 25 23 21 19 18 17 16 14 13 12 12 11 10 7 5 4 3 3 4 4 5 5 6 7 7 8 9 9 10 11 11 12 12 13 13 14 15 17 18 18 19 19 19 19 20 20 21 22 24 25 27 27 27 26 25 24 22 21 20 18 17 15 12 10 9 8 8 9 11 12 14 14 14
33 33 33 32 30 29 28 28 27 27 26 25 24 23 21 20 18 17 16 15 14 13 13 13 11 9 6 5 5 5 6 6 6 6 6 7 7 8 9 10 10 11 11 11 12 12 13 14 14 16 17 18 18 18 18 18 19 19 19 20 22 24 25 24 24 23 23 22 22 20 19 17 15 14 12 10 9 8 8 9 10 11 12 13 13
33 32 32 31 30 30 29 29 28 27 27 25 24 22 21 19 19 18 17 16 14 14 14 14 13 10 7 6 6 7 7 7 7 7 7 7 8 8 9 10 11 11 12 12 12 12 13 13 14 15 16 17 17 18 18 18 18 18 18 19 20 22 22 22 22 21 21 20 20 19 19 17 14 13 11 9 8 8 8 9 10 11 11 11 12
33 33 33 32 32 32 32 31 30 29 28 26 24 22 21 20 20 19 18 17 16 15 15 15 14 11 9 8 8 8 8 8 7 7 7 8 8 9 10 10 11 12 12 12 12 13 13 14 14 15 15 16 16 17 18 18 18 18 18 18 19 20 20 20 20 20 19 19 18 17 18 17 15 12 10 8 7 7 8 9 9 10 10 11 12
35 35 34 34 34 33 32 31 30 29 28 26 25 23 22 22 22 21 19 18 17 16 16 16 14 12 10 9 9 9 9 9 8 7 8 8 8 9 10 11 11 12 12 13 13 13 13 14 15 15 15 16 16 16 17 17 17 17 17 17 19 19 19 19 19 18 18 18 17 16 15 15 14 13 10 8 6 6 7 8 9 10 10 11 12
35 35 35 34 34 33 32 31 30 29 28 27 26 25 24 24 23 22 21 19 18 17 17 16 14 13 11 10 10 11 10 9 8 8 8 8 8 9 10 11 11 12 12 13 14 14 14 14 15 15 15 16 16 16 16 16 17 17 16 17 17 18 18 19 18 17 17 16 15 14 13 13 12 12 11 9 7 6 6 7 8 10 10 11 12
Wind_Direction
177 173 171 170 168 167 168 169 169 168 164 160 154 147 144 143 139 137 135 132 131 130 126 120 115 108 103 98 89 83 75 69 64 57 51 42 36 30 23 23 20 16 13 9 3 357 352 351 351 349 342 335 332 331 327 324 320 311 306 299 290 284 278 275 269 280 293 296 296 298 301 303 303 303 305 306 307 309 307 306 306 306 305 305 304
167 165 164 165 166 165 166 166 165 161 156 153 148 144 143 141 139 139 137 133 132 129 123 117 111 106 102 95 87 80 69 62 56 49 45 37 30 25 18 15 13 9 6 3 360 356 351 348 349 347 341 334 331 331 328 324 321 314 308 303 294 290 282 274 273 274 287 295 297 298 300 300 299 300 303 306 307 308 307 306 306 305 303 302 301
167 166 165 165 165 164 162 160 158 155 152 149 146 143 142 140 140 141 137 132 130 126 119 114 111 107 103 95 86 78 67 59 52 41 36 31 24 19 14 9 7 3 359 358 355 352 348 345 345 344 338 332 330 330 329 325 321 316 310 306 298 294 289 277 271 271 277 288 294 296 298 300 299 299 302 303 303 305 305 305 306 303 301 300 299
167 166 164 162 161 159 156 154 153 152 149 147 145 143 141 140 141 139 134 131 128 124 119 115 113 108 101 91 81 74 65 56 48 39 31 25 18 14 9 4 2 357 354 353 350 347 344 341 341 340 334 330 329 329 328 325 320 315 310 306 300 295 293 283 272 270 272 281 288 291 295 298 298 299 302 303 303 303 302 303 304 302 301 300 298
166 165 162 159 157 155 153 152 152 151 149 147 145 143 142 141 140 136 133 132 127 124 121 116 111 102 91 81 72 64 55 46 40 34 27 20 13 8 4 1 358 355 351 349 346 343 339 337 337 337 332 327 327 327 325 322 318 313 308 305 301 297 293 287 277 272 270 272 279 287 292 294 295 297 300 303 303 304 303 303 302 301 301 300 298
164 162 160 157 155 154 153 153 153 151 149 147 145 144 142 141 140 137 135 133 128 124 119 112 102 93 83 73 63 53 44 37 32 27 20 14 10 4 360 358 353 351 349 346 345 341 338 336 335 333 331 325 324 324 322 319 316 311 306 304 302 298 292 288 283 276 272 271 275 282 287 291 294 296 299 302 302 302 303 304 304 303 303 302 299
163 161 159 157 155 155 154 154 154 151 149 147 146 145 144 143 143 141 137 134 129 123 115 106 97 87 76 65 56 47 39 33 25 20 15 8 6 2 357 355 352 349 348 345 343 341 337 335 334 331 330 326 323 322 321 318 315 310 306 304 303 300 295 291 288 282 277 275 276 278 282 288 291 293 297 301 300 298 300 301 303 306 306 304 301
164 161 159 158 156 155 155 154 153 151 150 148 148 147 147 147 146 142 138 134 127 120 112 103 93 83 72 60 52 43 35 28 19 12 9 4 1 359 355 353 350 346 345 343 341 340 337 335 334 332 330 328 325 323 321 319 315 311 309 307 304 301 297 294 292 287 282 279 277 278 281 285 288 290 296 300 299 298 302 301 298 300 302 301 300
165 162 161 159 157 156 155 155 154 153 152 150 150 150 149 148 145 140 136 131 124 117 109 100 90 80 70 59 50 40 30 23 15 6 3 359 356 356 354 351 348 344 342 341 339 338 338 335 334 333 331 329 328 326 323 321 315 310 310 309 306 302 299 296 294 291 287 283 281 283 284 284 286 291 295 298 298 300 302 298 293 295 298 297 296
166 164 162 160 158 157 157 156 155 154 154 153 152 151 150 147 143 139 133 127 121 114 105 96 87 76 66 56 45 37 26 16 11 3 359 357 354 353 352 349 347 344 340 339 338 338 338 336 334 333 332 331 330 328 326 323 317 311 308 308 306 303 300 298 296 294 290 287 285 288 288 286 291 295 296 297 299 299 297 295 296 299 300 296 294
167 165 163 160 160 159 158 157 157 156 156 155 153 151 150 146 141 137 132 125 120 112 104 93 83 70 55 46 37 28 19 9 5 1 358 358 355 353 351 347 344 343 341 339 338 337 336 335 334 333 333 333 332 329 326 322 318 314 310 308 305 302 298 296 296 296 295 292 291 291 290 290 294 297 297 297 299 299 299 300 299 298 295 291 292
167 166 164 162 162 161 160 159 158 159 158 156 154 151 149 145 141 138 133 127 121 112 103 91 79 64 48 41 30 18 11 4 1 359 357 357 355 352 349 345 342 342 342 340 338 338 336 335 334 333 333 333 332 330 327 323 319 316 313 311 308 305 300 297 296 295 294 294 293 293 294 295 296 297 297 298 301 303 303 300 296 291 288 286 283
169 167 165 164 164 163 162 161 160 160 159 156 154 151 149 147 143 140 134 127 120 111 102 89 74 58 44 40 26 12 6 3 1 360 357 355 353 350 345 342 341 341 342 341 340 338 337 335 333 333 333 333 332 331 329 326 323 320 317 314 312 309 307 304 300 296 293 293 292 292 294 294 293 294 295 297 302 302 298 295 294 292 290 289 288
170 168 166 165 166 165 164 164 162 161 159 156 155 152 151 149 145 140 134 126 119 111 103 89 71 52 39 33 23 10 4 2 1 359 356 353 350 346 343 341 342 342 342 342 341 339 338 336 333 331 331 332 333 332 330 327 325 322 320 317 315 313 311 310 308 303 299 295 292 291 293 293 291 291 293 295 297 295 291 291 293 293 292 293 292
171 169 168 167 168 167 167 166 164 161 159 157 156 155 153 150 145 140 133 127 120 112 104 88 64 44 32 25 20 12 5 1 1 359 356 353 348 344 343 342 342 343 342 342 341 340 339 337 333 331 330 331 332 332 330 327 323 321 319 317 315 314 312 311 309 306 302 298 294 292 292 292 291 289 291 293 293 290 289 290 290 291 293 294 293
171 171 170 170 170 169 169 168 165 162 161 159 158 157 154 150 146 140 134 129 120 112 101 78 56 39 25 16 13 12 6 1 0 360 356 353 348 345 344 344 343 343 342 342 341 340 340 339 335 331 328 328 329 329 328 326 321 318 315 314 313 313 312 312 312 309 305 302 298 296 295 295 295 293 294 296 295 292 293 292 291 293 294 293 292
173 173 172 172 171 171 171 170 167 163 162 161 159 157 154 151 148 143 137 132 123 113 94 60 45 32 23 12 7 8 7 2 360 359 357 354 350 348 346 345 344 342 341 341 340 339 339 338 334 330 327 326 326 326 326 325 321 316 313 312 312 311 311 314 315 312 310 306 303 300 299 299 300 300 299 299 297 296 294 291 293 296 294 291 292
175 174 173 173 173 172 172 171 169 165 163 162 160 158 156 155 152 145 141 137 127 114 93 58 32 23 21 16 8 6 6 4 1 0 360 357 353 351 349 346 344 342 340 339 337 336 335 335 334 330 326 325 324 323 325 325 321 317 314 313 311 310 312 314 314 312 312 310 308 306 304 302 301 300 298 297 296 296 292 288 290 292 290 288 291
177 176 175 174 173 173 172 171 170 166 163 162 161 161 160 157 153 148 144 140 130 112 89 64 30 18 21 21 15 10 7 6 5 3 2 2 358 354 351 348 345 342 340 337 334 333 332 333 334 330 324 322 322 322 323 323 320 317 314 313 310 308 311 313 312 311 311 311 309 308 306 305 303 301 299 296 296 295 290 286 288 287 284 286 290
178 176 175 174 174 173 171 171 169 166 165 164 163 163 163 160 156 152 148 143 134 111 72 55 30 16 22 26 20 14 9 7 7 6 4 4 2 356 352 351 346 340 337 334 331 330 331 331 331 328 324 322 321 321 322 321 319 317 316 313 310 308 312 313 312 312 311 309 308 307 306 307 306 304 303 300 298 297 293 291 291 288 286 289 292
178 177 175 174 174 172 171 170 169 167 167 167 166 166 164 162 160 156 153 149 135 105 52 35 26 20 24 26 19 15 12 8 6 6 6 5 2 358 354 352 347 338 332 330 329 328 328 328 329 328 326 323 322 322 321 321 320 318 316 313 310 311 314 314 312 311 310 308 308 307 306 307 307 306 305 303 300 299 299 302 302 298 296 294 292
178 177 176 174 173 172 170 170 171 170 169 170 169 168 165 164 164 161 156 152 134 91 34 19 20 23 24 21 16 15 15 12 8 7 6 4 2 360 355 349 344 337 331 329 327 326 325 326 326 325 324 323 322 322 322 322 321 319 316 314 314 316 317 315 313 311 310 308 308 307 306 308 309 308 306 304 304 308 310 311 309 306 303 297 290
178 177 176 174 173 172 171 172 172 172 171 171 171 169 167 167 166 162 157 152 135 60 21 15 14 16 16 14 14 15 15 15 12 8 5 3 0 359 353 345 341 337 331 326 324 323 323 324 324 323 322 323 322 322 323 323 322 320 318 319 320 321 321 318 315 312 310 308 307 306 307 308 308 306 307 311 316 317 315 314 313 311 309 304 297
178 177 176 174 173 173 174 174 174 173 171 172 173 173 171 169 165 163 162 155 133 34 2 1 4 8 8 6 9 14 14 14 12 8 3 1 359 355 349 343 339 336 329 324 322 321 320 321 321 321 321 322 322 323 323 323 322 321 321 322 322 323 323 320 318 314 310 308 308 307 308 309 309 311 316 319 319 318 316 317 317 314 311 308 306
178 176 175 175 175 176 175 175 174 173 172 173 175 176 174 172 169 166 163 152 122 35 360 1 5 9 10 6 6 11 13 11 10 7 4 1 357 351 344 339 336 333 327 324 322 319 318 318 319 320 321 322 324 324 324 324 323 323 323 324 324 324 324 322 319 317 314 313 313 314 315 316 316 317 318 318 318 319 320 320 319 316 310 305 309
178 177 176 177 177 176 176 175 173 174 175 175 175 177 175 174 171 164 156 145 119 50 14 12 10 11 12 8 5 8 10 9 7 5 3 360 353 345 341 337 334 331 328 325 323 322 321 321 321 322 323 323 324 324 322 322 324 324 325 327 327 327 327 324 321 320 320 320 320 320 320 319 318 317 318 320 321 322 323 321 319 318 315 313 329
178 177 177 177 177 177 177 176 176 176 178 177 175 176 176 174 169 161 154 148 130 85 35 19 13 12 11 6 3 5 7 7 7 4 359 354 348 344 342 340 337 336 334 332 330 327 325 324 324 325 326 325 325 324 323 324 326 327 328 330 329 329 328 325 323 323 323 322 321 320 319 318 318 319 322 324 323 323 323 321 317 318 325 348 30
179 178 178 178 178 179 179 179 179 179 180 178 175 176 175 172 168 163 160 157 142 112 60 30 18 12 8 1 359 2 5 7 6 0 353 349 345 343 343 342 339 338 337 334 331 328 327 329 331 333 333 332 331 331 331 331 330 330 331 332 332 332 332 330 328 327 326 324 322 320 319 319 321 323 324 325 324 324 325 321 318 323 336 16 50
179 179 179 179 180 180 180 181 182 182 180 177 174 173 173 170 167 164 163 158 142 120 74 41 21 11 12 7 359 357 358 360 357 350 346 346 344 342 341 340 337 335 335 334 332 330 333 336 338 338 338 337 336 337 337 336 334 334 335 337 337 335 334 334 332 330 329 327 324 322 322 323 323 324 326 326 325 325 327 326 325 339 17 68 75
179 180 181 182 182 183 183 183 182 181 180 177 173 170 166 166 167 167 166 158 145 132 103 64 27 7 17 22 12 359 351 346 344 343 345 346 345 343 341 339 338 337 338 340 340 340 340 339 339 340 341 340 340 340 339 337 334 333 335 337 337 336 334 334 334 332 330 329 326 325 325 325 325 326 327 326 325 327 331 333 337 17 75 86 80
181 182 184 185 185 185 185 184 182 180 179 178 177 172 165 164 167 170 167 160 152 148 142 125 103 53 29 23 17 9 356 347 347 349 348 347 350 350 346 345 348 348 347 348 349 349 347 344 343 345 345 342 341 339 336 334 332 331 332 332 333 334 333 333 333 333 331 329 328 328 329 328 327 327 326 326 326 331 339 350 20 76 89 90 84
186 187 187 187 187 187 187 185 182 181 178 177 178 176 171 168 166 165 165 162 159 159 160 157 141 104 69 37 14 3 358 358 357 354 350 351 355 355 354 359 3 1 360 1 359 355 352 349 347 346 343 339 337 336 334 332 330 328 329 329 329 329 330 331 332 332 331 329 329 330 331 330 330 329 327 327 329 334 353 22 62 90 94 91 88
192 192 190 189 188 188 188 187 185 184 182 179 178 179 178 175 168 163 164 165 166 167 166 160 144 114 91 68 32 14 9 7 2 357 354 357 360 359 2 11 16 12 10 12 7 357 353 350 345 342 339 335 333 333 333 332 328 326 327 327 325 325 327 330 333 333 333 331 331 331 332 332 332 330 329 331 335 343 15 52 78 94 95 91 88
198 197 195 193 191 190 191 191 189 187 185 184 182 181 180 178 172 167 167 167 166 165 161 152 137 117 96 75 54 42 33 20 8 2 1 3 3 359 0 10 17 18 16 14 6 356 351 347 341 338 336 333 331 330 329 329 328 327 326 326 325 326 328 331 334 335 334 333 332 333 334 334 334 333 332 333 341 2 38 66 81 89 93 95 94
201 200 199 197 195 194 193 193 192 190 188 187 186 184 180 177 173 170 168 163 159 156 152 146 135 115 92 76 64 53 43 31 19 12 12 9 3 358 1 8 13 13 11 9 2 355 350 344 339 337 336 333 331 330 329 328 328 327 327 325 323 324 327 330 333 334 334 333 333 334 335 336 336 334 333 337 352 23 48 67 82 93 99 101 100
201 201 200 199 198 197 196 194 194 193 192 190 187 186 183 178 174 170 162 155 153 154 151 144 133 115 90 76 71 60 49 39 28 21 21 17 9 7 13 16 13 6 2 1 357 351 347 343 340 338 337 335 334 333 332 330 328 327 327 326 323 322 324 328 331 333 333 333 335 334 335 336 337 334 334 343 6 40 64 85 97 100 105 107 103
203 202 201 201 199 198 196 195 194 193 193 190 187 184 182 178 174 168 158 151 153 156 153 143 132 121 102 79 70 63 53 44 35 30 28 24 19 19 23 21 13 4 360 356 351 346 343 344 344 342 340 338 337 336 335 332 330 329 329 328 326 324 323 324 329 332 333 334 335 335 335 335 336 333 333 341 10 57 88 108 112 108 109 110 105
206 205 204 202 200 199 197 195 193 191 191 190 188 185 182 179 174 167 158 154 156 160 157 146 131 118 102 78 65 58 49 41 36 33 31 27 23 22 21 18 13 8 1 354 349 344 342 344 346 346 343 341 340 339 337 336 334 333 332 330 329 329 329 329 331 335 336 336 337 336 334 332 332 331 329 331 357 91 112 123 124 120 116 113 109
208 207 207 205 202 201 199 196 194 192 190 189 188 186 185 182 176 169 164 162 163 166 165 152 134 118 99 77 62 51 42 36 33 31 30 29 25 21 16 13 11 8 1 355 350 346 344 345 347 347 346 345 344 342 341 339 337 336 336 333 331 335 339 338 334 335 337 338 338 337 333 330 329 328 323 321 322 142 140 137 135 131 126 123 121
208 207 207 205 203 202 201 199 197 196 193 191 190 188 188 187 182 175 172 171 172 175 173 162 148 131 104 82 64 47 38 37 35 30 27 25 22 17 12 9 7 5 359 354 350 348 346 346 348 348 348 347 346 344 344 343 340 339 339 337 334 336 341 342 338 336 336 337 338 338 334 327 325 324 319 312 285 190 163 152 149 147 141 136 133
209 208 207 206 204 202 201 200 200 199 197 195 195 194 192 191 187 183 181 180 181 183 180 170 156 138 116 101 88 63 40 37 34 28 22 20 16 11 8 6 4 2 357 352 349 347 346 347 349 350 350 349 348 346 346 346 344 342 341 340 338 339 343 345 345 343 342 340 339 340 336 327 321 318 312 300 269 212 178 167 165 160 150 145 142
211 209 207 205 204 202 202 202 201 199 198 197 198 197 195 193 191 190 189 189 191 193 189 178 163 147 132 122 119 109 50 33 29 19 15 13 7 4 3 3 1 359 355 351 349 347 345 346 348 350 351 351 350 348 348 348 346 343 341 340 341 343 346 347 347 347 346 343 341 340 336 327 319 313 306 294 265 219 191 179 173 165 155 152 150
213 211 208 206 205 204 204 203 200 198 198 199 198 197 196 194 193 194 194 197 201 202 199 191 177 162 152 145 142 142 116 32 15 3 1 1 357 354 353 353 355 355 353 351 349 347 345 345 347 348 350 352 351 350 349 349 347 343 340 340 343 346 348 349 348 348 347 344 341 339 335 327 319 311 302 288 260 223 201 189 178 169 163 160 156
215 212 210 209 208 206 205 204 201 200 200 200 198 197 196 195 195 197 200 205 208 209 208 207 196 178 166 160 160 163 172 300 336 343 346 346 344 343 341 341 343 345 346 347 347 345 344 344 344 344 347 350 351 351 352 352 350 346 342 340 343 347 349 349 349 349 347 343 340 337 334 329 321 312 301 285 258 229 210 195 182 173 169 166 163
215 213 211 210 209 208 206 204 203 201 200 198 197 197 197 197 198 201 205 209 212 214 217 220 215 198 180 174 183 203 235 281 305 319 326 327 329 331 331 331 334 335 336 339 341 340 341 341 340 340 342 346 348 350 352 353 353 351 347 344 343 345 348 349 350 351 350 346 341 337 334 330 323 314 303 288 261 236 220 206 193 182 176 173 169
215 213 212 211 210 208 205 203 202 201 200 198 198 198 198 199 201 205 209 213 214 218 225 230 228 218 204 204 228 251 270 286 295 304 312 315 317 319 320 323 325 327 329 332 333 334 334 335 336 337 338 340 343 346 348 351 352 352 352 350 348 347 348 349 350 351 353 351 347 342 336 331 325 316 306 291 268 245 230 217 204 194 186 179 174
215 213 212 212 210 208 206 204 202 202 201 201 201 201 201 203 205 209 212 215 216 221 229 236 236 232 228 234 251 266 277 285 293 302 308 310 313 315 316 318 319 320 322 325 327 328 328 328 329 331 332 334 337 340 343 347 349 350 351 352 351 349 349 348 348 350 352 353 352 349 343 336 329 319 309 294 273 253 237 221 209 200 193 187 179
215 213 212 211 210 208 207 205 204 203 204 204 205 205 204 207 211 214 215 215 216 222 233 240 243 241 240 245 256 266 273 280 288 297 302 306 311 313 313 316 318 319 320 323 323 323 323 323 324 324 325 327 331 334 337 341 345 345 347 349 349 346 345 345 345 346 348 350 353 354 351 346 338 326 312 295 276 257 238 222 212 205 198 191 183
213 212 211 210 209 209 208 207 206 206 206 206 207 207 207 210 214 216 216 216 216 223 235 244 247 246 247 251 258 264 268 274 283 292 298 304 309 310 312 316 318 319 320 323 323 324 323 321 320 320 319 320 324 327 331 335 339 340 342 346 345 341 340 341 343 343 344 346 350 353 353 350 345 336 322 302 281 261 239 224 216 208 200 194 187
212 211 211 211 210 210 210 210 209 208 208 208 208 209 211 213 216 217 216 216 218 223 233 243 248 250 251 254 258 262 266 272 280 289 296 302 306 310 314 317 319 321 325 327 326 326 325 321 318 316 315 316 317 320 322 327 330 333 336 340 339 337 336 338 340 341 343 343 345 348 350 348 345 340 331 314 293 268 243 229 222 214 208 202 195
213 212 211 211 211 211 210 210 209 210 210 210 211 212 213 216 218 218 217 219 222 226 233 241 246 248 249 254 259 263 266 272 279 287 295 301 306 312 316 319 323 328 331 332 332 332 329 324 320 317 315 314 314 315 316 318 321 323 328 331 332 332 334 336 337 339 341 342 340 342 344 344 342 337 330 318 302 281 255 240 230 221 216 212 205